Regional Weather Roundup
Issued by NWS Goodland, KS

Home | Current Version | Previous Version | Text Only | Print | Product List | Glossary Off
Versions: 1 2 3 4 5 6 7 8 9 10 11 12 13 14 15 16 17 18 19 20 21 22 23 24 25 26 27 28 29 30 31 32 33 34 35 36 37 38 39 40 41 42 43 44 45 46 47 48 49 50

000
ASUS43 KGLD 300008
RWRGLD

GOODLAND FORECAST AREA HOURLY WEATHER ROUNDUP
NATIONAL WEATHER SERVICE GOODLAND KS
600 PM MDT FRI APR 29 2016

...OFFICIAL OBSERVATIONS...

CITY           SKY/WX    TMP DP  RH WIND       PRES   REMARKS
GOODLAND KS    SNOW      32  32 100 N9        29.87S VSB 1/2
HILL CITY KS   LGT RAIN  45  42  89 NE22      29.78F
IMPERIAL NEB   LGT RAIN  35  33  92 N14       29.91S FOG
MCCOOK NEB     CLOUDY    42  39  89 NE16G31   29.84S
AKRON CO       SNOW      32  31  96 N9        29.89F VSB 1/2
BURLINGTON CO  SNOW      33  31  92 N12       29.85F VSB 1/2
LIMON CO       LGT SNOW  31  30  96 NW13      29.87R FOG
$$

...UNOFFICIAL OBSERVATIONS...

CITY           SKY/WX    TMP DP  RH WIND       PRES   REMARKS
COLBY KS       LGT SNOW  36  36 100 NW9       29.90R
GOVE KS          N/A     41  32  70 MISG        N/A
LENORA KS        N/A     43  32  65 MISG        N/A
NORTON KS      CLOUDY    43  36  75 NE22G33   29.79S
SHARON SPRINGS   N/A     33  31  93 N9          N/A
TRIBUNE KS     CLOUDY    36  34  93 N15       29.85
KIT CARSON CO    N/A     33  30  90 MISG        N/A
YUMA CO          N/A     32  31  96 CALM        N/A
$$




USA.gov is the U.S. government's official web portal to all federal, state and local government web resources and services.